N2KI-13 Weather Reports


time (UTC)temp
C
wind
direction
speed
KPH
gust
KPH
rain 1hr
cm
rain 24hr
cm
rain mn
cm
humidity
%
barometer
mb
20260506123004 18 232 1.6 8.0 0.00 0.00 0.00 74 1007.3
20260506122504 18 224 4.8 11.3 0.00 0.00 0.00 75 1007.3
20260506122004 18 261 1.6 11.3 0.00 0.00 0.00 75 1007.4
20260506121004 18 213 1.6 16.1 0.00 0.00 0.00 75 1007.2
20260506115504 18 185 1.6 11.3 0.00 0.00 0.00 76 1007.5
20260506115004 18 216 3.2 14.5 0.00 0.00 0.00 76 1007.6
20260506114504 18 230 3.2 16.1 0.00 0.00 0.00 76 1007.6
20260506113503 18 239 4.8 12.9 0.00 0.00 0.00 77 1007.4
20260506113004 18 199 3.2 11.3 0.00 0.00 0.00 77 1007.3
20260506112504 18 204 0.0 4.8 0.00 0.00 0.00 77 1007.4
20260506112004 18 235 1.6 12.9 0.00 0.00 0.00 77 1007.4
20260506111504 18 211 1.6 11.3 0.00 0.00 0.00 77 1007.3
20260506111005 18 196 3.2 19.3 0.00 0.00 0.00 77 1007.4
20260506110503 18 202 3.2 12.9 0.00 0.03 0.00 77 1007.2
20260506110004 18 258 3.2 12.9 0.00 0.03 0.00 77 1007.3
20260506105504 18 304 3.2 9.7 0.00 0.03 0.00 77 1007.2
20260506105004 18 264 3.2 12.9 0.00 0.05 0.00 77 1007.3
20260506104504 18 198 0.0 12.9 0.00 0.08 0.00 77 1007.3
20260506104004 18 204 4.8 12.9 0.00 0.10 0.00 77 1007.4
20260506103504 18 238 4.8 11.3 0.00 0.10 0.00 77 1007.4
20260506103004 18 273 3.2 9.7 0.00 0.10 0.00 77 1007.3
20260506102503 18 214 1.6 12.9 0.00 0.10 0.00 77 1007.3
20260506102004 18 194 3.2 14.5 0.00 0.10 0.00 77 1007.3
20260506101504 18 251 3.2 8.0 0.00 0.10 0.00 76 1007.3
20260506101004 18 223 6.4 19.3 0.00 0.10 0.00 76 1007.2
20260506100504 18 245 3.2 11.3 0.00 0.10 0.00 76 1007.1
20260506100004 18 263 3.2 19.3 0.00 0.10 0.00 76 1007.0
20260506095504 18 270 0.0 8.0 0.00 0.10 0.00 76 1007.1
20260506093504 18 306 1.6 9.7 0.00 0.10 0.00 75 1007.3
20260506092503 18 258 4.8 19.3 0.00 0.10 0.00 75 1007.2
20260506092004 18 279 3.2 9.7 0.00 0.10 0.00 74 1007.1
20260506091503 18 258 4.8 19.3 0.00 0.10 0.00 74 1007.0
20260506091004 18 187 3.2 12.9 0.00 0.10 0.00 73 1007.1
20260506090504 18 252 4.8 14.5 0.00 0.10 0.00 73 1007.0
20260506090004 18 243 1.6 8.0 0.00 0.10 0.00 73 1007.1
20260506085004 18 194 4.8 12.9 0.00 0.10 0.00 72 1007.2
20260506084504 18 237 1.6 8.0 0.00 0.10 0.00 71 1007.2
20260506084004 18 262 0.0 3.2 0.00 0.10 0.00 70 1007.2
20260506083503 18 261 1.6 4.8 0.00 0.10 0.00 70 1007.3
20260506083004 19 228 1.6 4.8 0.00 0.10 0.00 69 1007.3
20260506082004 19 245 1.6 16.1 0.00 0.10 0.00 68 1007.3
20260506081504 19 243 1.6 16.1 0.00 0.10 0.00 68 1007.4
20260506081003 19 188 1.6 4.8 0.00 0.10 0.00 67 1007.3
20260506073504 20 193 1.6 9.7 0.00 0.10 0.00 64 1007.4
20260506073004 20 205 1.6 20.9 0.00 0.10 0.00 63 1007.4
20260506072503 20 200 0.0 16.1 0.00 0.10 0.00 63 1007.4
20260506072003 20 257 0.0 3.2 0.00 0.10 0.00 62 1007.3
20260506071503 20 246 1.6 4.8 0.00 0.10 0.00 62 1007.3
20260506071003 20 219 3.2 16.1 0.00 0.10 0.00 61 1007.4
20260506070504 20 243 1.6 12.9 0.00 0.10 0.00 61 1007.5
20260506062503 21 240 3.2 16.1 0.00 0.10 0.00 59 1007.7
20260506062004 21 221 1.6 19.3 0.00 0.10 0.00 59 1007.7
20260506061504 21 270 1.6 11.3 0.00 0.10 0.00 59 1007.8
20260506061003 21 259 4.8 16.1 0.00 0.10 0.00 59 1007.7
20260506051004 21 265 3.2 11.3 0.00 0.10 0.00 58 1008.1
20260506050505 21 254 1.6 8.0 0.00 0.10 0.00 58 1008.2
20260506045004 21 208 1.6 11.3 0.00 0.10 0.00 58 1008.2
20260506044503 21 251 3.2 16.1 0.00 0.10 0.00 58 1008.2
20260506044004 21 171 3.2 12.9 0.00 0.10 0.00 58 1008.3
20260506043505 21 203 1.6 14.5 0.00 0.10 0.00 58 1008.2
20260506043004 21 257 3.2 16.1 0.00 0.10 0.00 58 1008.3
20260506042505 21 264 3.2 11.3 0.00 0.10 0.00 58 1008.1
20260506042004 21 271 3.2 19.3 0.00 0.10 0.00 57 1008.1
20260506041504 21 212 1.6 11.3 0.00 0.10 0.00 57 1008.1
20260506041004 22 263 3.2 19.3 0.00 0.10 0.00 55 1008.0
20260506040504 22 202 1.6 9.7 0.00 0.10 0.00 55 1008.0
20260506040004 22 202 1.6 11.3 0.00 0.10 0.00 54 1007.9
20260506035504 22 210 1.6 11.3 0.00 0.10 0.10 54 1008.0
20260506035004 22 203 3.2 12.9 0.00 0.10 0.10 53 1008.0
20260506034504 22 203 8.0 16.1 0.00 0.10 0.10 52 1008.0
20260506034004 22 234 3.2 14.5 0.00 0.10 0.10 52 1008.0
20260506033503 22 178 1.6 19.3 0.00 0.10 0.10 51 1007.9
20260506032504 22 220 6.4 12.9 0.00 0.10 0.10 50 1007.9
20260506032004 22 285 1.6 8.0 0.00 0.10 0.10 49 1007.9
20260506031504 22 185 1.6 11.3 0.00 0.10 0.10 49 1007.8
20260506031004 23 223 1.6 11.3 0.00 0.10 0.10 48 1007.8
20260506030504 23 284 1.6 12.9 0.00 0.10 0.10 48 1007.7
20260506030004 23 298 1.6 8.0 0.00 0.10 0.10 48 1007.8
20260506025004 23 233 3.2 16.1 0.00 0.10 0.10 47 1007.7
20260506024505 23 242 4.8 19.3 0.00 0.10 0.10 47 1007.7
20260506024004 23 246 1.6 11.3 0.00 0.10 0.10 47 1007.8
20260506023504 23 243 4.8 19.3 0.00 0.10 0.10 47 1007.7
20260506023004 23 224 4.8 12.9 0.00 0.10 0.10 46 1007.7
20260506022504 23 123 3.2 16.1 0.00 0.10 0.10 46 1007.6
20260506022003 23 265 3.2 12.9 0.00 0.10 0.10 46 1007.6
20260506021504 23 255 3.2 12.9 0.00 0.10 0.10 46 1007.6
20260506020504 23 198 3.2 24.1 0.00 0.10 0.10 45 1007.5
20260506020004 23 258 3.2 25.7 0.00 0.10 0.10 45 1007.5
20260506015505 24 190 3.2 14.5 0.00 0.10 0.10 44 1007.6
20260506015003 24 205 8.0 14.5 0.00 0.10 0.10 44 1007.6
20260506014504 24 270 3.2 12.9 0.00 0.10 0.10 43 1007.5
20260506014004 24 222 3.2 11.3 0.00 0.10 0.10 43 1007.5
20260506013004 24 237 1.6 8.0 0.00 0.10 0.10 41 1007.4
20260506012503 25 211 1.6 11.3 0.00 0.10 0.10 40 1007.3
20260506012004 25 277 1.6 11.3 0.00 0.10 0.10 40 1007.3
20260506011504 25 109 4.8 20.9 0.00 0.10 0.10 40 1007.2
20260506011004 25 274 4.8 11.3 0.00 0.10 0.10 39 1007.1
20260506010504 25 274 1.6 19.3 0.00 0.10 0.10 40 1007.0
20260506005004 25 249 3.2 9.7 0.00 0.10 0.10 39 1006.9
20260506004504 25 158 3.2 20.9 0.00 0.10 0.10 38 1006.9
20260506004004 25 200 6.4 19.3 0.00 0.10 0.10 39 1006.8
20260506003004 25 211 1.6 11.3 0.00 0.10 0.10 39 1006.8
20260506002004 25 249 1.6 11.3 0.00 0.10 0.10 38 1006.7
20260506001503 25 292 1.6 4.8 0.00 0.10 0.10 39 1006.7
20260506001004 25 125 3.2 11.3 0.00 0.10 0.10 38 1006.7
20260506000503 25 189 1.6 4.8 0.00 0.10 0.10 38 1006.7
20260506000004 25 185 1.6 12.9 0.00 0.10 0.10 38 1006.6
20260505235004 25 228 4.8 24.1 0.00 0.10 0.10 37 1006.6
20260505234504 25 217 8.0 24.1 0.00 0.10 0.10 37 1006.5
20260505234004 25 228 3.2 19.3 0.00 0.10 0.10 37 1006.5
20260505233504 25 224 4.8 24.1 0.00 0.10 0.10 37 1006.4
20260505233004 25 193 3.2 19.3 0.00 0.10 0.10 37 1006.4
20260505232004 26 266 4.8 16.1 0.00 0.10 0.10 36 1006.1
20260505231004 26 277 9.7 32.2 0.00 0.10 0.10 36 1006.1
20260505230504 26 222 3.2 19.3 0.00 0.10 0.10 37 1006.1
20260505230003 26 241 6.4 20.9 0.00 0.10 0.10 36 1006.1
20260505225505 26 222 4.8 19.3 0.00 0.10 0.10 35 1006.0
20260505225004 26 280 3.2 14.5 0.00 0.10 0.10 36 1005.9
20260505224504 26 257 4.8 16.1 0.00 0.10 0.10 36 1005.8
20260505223504 26 232 3.2 16.1 0.00 0.10 0.10 35 1005.7
20260505223004 26 254 4.8 22.5 0.00 0.10 0.10 35 1005.6
20260505222504 26 251 6.4 19.3 0.00 0.10 0.10 35 1005.6
20260505222004 26 200 8.0 22.5 0.00 0.10 0.10 34 1005.7
20260505221504 26 215 8.0 24.1 0.00 0.10 0.10 35 1005.6
20260505221003 27 231 11.3 25.7 0.00 0.10 0.10 34 1005.5
20260505220504 27 240 9.7 20.9 0.00 0.10 0.10 33 1005.3
20260505220004 27 251 8.0 19.3 0.00 0.10 0.10 32 1005.2
20260505215505 27 210 3.2 19.3 0.00 0.10 0.10 34 1005.2
20260505215004 27 208 8.0 19.3 0.00 0.10 0.10 32 1005.1
20260505214504 27 192 9.7 29.0 0.00 0.10 0.10 32 1005.3
20260505214003 27 243 3.2 19.3 0.00 0.10 0.10 34 1005.3
20260505213504 27 206 12.9 32.2 0.00 0.10 0.10 33 1005.3
20260505213004 27 218 3.2 14.5 0.00 0.10 0.10 34 1005.3
20260505212004 27 240 3.2 16.1 0.00 0.10 0.10 36 1005.3
20260505211504 27 194 3.2 19.3 0.00 0.10 0.10 34 1005.3
20260505210004 27 265 8.0 24.1 0.00 0.10 0.10 33 1005.0
20260505205004 27 217 4.8 12.9 0.00 0.10 0.10 33 1004.9
20260505204504 28 227 6.4 16.1 0.00 0.10 0.10 33 1004.8
20260505204003 28 213 8.0 37.0 0.00 0.10 0.10 33 1004.8
20260505203004 28 245 1.6 14.5 0.00 0.10 0.10 35 1004.9
20260505202004 27 153 3.2 12.9 0.00 0.10 0.10 34 1005.0
20260505201503 27 229 8.0 24.1 0.00 0.10 0.10 33 1005.2
20260505201004 27 267 1.6 19.3 0.00 0.10 0.10 35 1005.3
20260505200504 28 238 9.7 32.2 0.00 0.10 0.10 33 1005.4
20260505200004 28 266 8.0 37.0 0.00 0.10 0.10 35 1005.3
20260505195503 28 263 8.0 14.5 0.00 0.10 0.10 34 1005.3
20260505195004 28 240 4.8 24.1 0.00 0.10 0.10 34 1005.3
20260505194504 28 282 4.8 14.5 0.00 0.10 0.10 34 1005.4
20260505194003 28 204 3.2 19.3 0.00 0.10 0.10 35 1005.5
20260505193504 28 274 3.2 19.3 0.00 0.10 0.10 35 1005.4
20260505193003 28 231 3.2 25.7 0.00 0.10 0.10 36 1005.5
20260505192504 28 235 8.0 19.3 0.00 0.10 0.10 35 1005.6
20260505192004 28 280 3.2 19.3 0.00 0.10 0.10 36 1005.7
20260505191504 28 226 8.0 25.7 0.00 0.10 0.10 37 1005.6
20260505191003 28 242 4.8 19.3 0.00 0.10 0.10 36 1005.9
20260505190004 28 201 3.2 11.3 0.00 0.10 0.10 37 1005.9
20260505185503 27 254 8.0 24.1 0.00 0.10 0.10 36 1006.0
20260505185004 28 216 3.2 12.9 0.00 0.10 0.10 36 1006.1
20260505184504 28 259 8.0 14.5 0.00 0.10 0.10 36 1006.0
20260505184003 27 256 11.3 20.9 0.00 0.10 0.10 37 1006.2
20260505183504 27 258 4.8 16.1 0.00 0.10 0.10 39 1006.3
20260505183004 27 256 4.8 14.5 0.00 0.10 0.10 40 1006.4
20260505182503 27 202 6.4 16.1 0.00 0.10 0.10 40 1006.5
20260505182004 27 244 8.0 16.1 0.00 0.10 0.10 41 1006.7
20260505181504 27 248 1.6 24.1 0.00 0.10 0.10 42 1006.7
20260505180503 27 265 4.8 19.3 0.00 0.10 0.10 42 1006.6
20260505175503 27 277 8.0 20.9 0.00 0.10 0.10 40 1006.6
20260505175003 27 273 8.0 22.5 0.00 0.10 0.10 41 1006.6
20260505174504 27 287 1.6 19.3 0.00 0.10 0.10 43 1006.8
20260505174004 26 268 8.0 19.3 0.00 0.10 0.10 42 1006.9
20260505173504 27 282 8.0 29.0 0.00 0.10 0.10 40 1006.6
20260505173004 27 268 4.8 24.1 0.00 0.10 0.10 41 1006.8
20260505172504 27 272 4.8 19.3 0.00 0.10 0.10 41 1007.0
20260505172005 27 238 4.8 22.5 0.00 0.10 0.10 41 1007.0
20260505171504 27 263 4.8 19.3 0.00 0.10 0.10 42 1007.0
20260505171004 27 256 4.8 19.3 0.00 0.10 0.10 43 1007.0
20260505170504 27 255 4.8 24.1 0.00 0.10 0.10 44 1007.0
20260505165504 26 235 6.4 19.3 0.00 0.10 0.10 44 1007.2
20260505165004 26 270 8.0 19.3 0.00 0.10 0.10 43 1007.2
20260505164504 26 230 4.8 19.3 0.00 0.10 0.10 43 1007.4
20260505164004 26 266 4.8 19.3 0.00 0.10 0.10 44 1007.6
20260505163504 26 258 8.0 24.1 0.00 0.10 0.10 44 1007.6
20260505163004 26 283 3.2 8.0 0.00 0.10 0.10 44 1007.6
20260505162004 25 269 4.8 12.9 0.00 0.10 0.10 47 1008.0
20260505161504 25 249 8.0 22.5 0.00 0.10 0.10 44 1008.0
20260505161004 25 294 6.4 19.3 0.00 0.10 0.10 46 1008.1
20260505160504 25 275 1.6 22.5 0.00 0.10 0.10 47 1008.2
20260505153004 25 249 4.8 14.5 0.00 0.10 0.10 49 1008.6
20260505152504 24 312 8.0 24.1 0.00 0.10 0.10 49 1008.6
20260505151504 24 257 8.0 19.3 0.00 0.10 0.10 49 1008.6
20260505151003 24 285 6.4 19.3 0.00 0.10 0.10 50 1008.6
20260505150504 24 280 11.3 20.9 0.00 0.10 0.10 48 1008.5
20260505140504 23 281 6.4 14.5 0.00 0.10 0.10 54 1008.8
20260505125004 17 290 0.0 0.0 0.00 0.10 0.10 81 1009.1
20260505124504 16 288 0.0 0.0 0.00 0.10 0.10 81 1008.7
20260505123503 16 288 0.0 0.0 0.00 0.10 0.10 83 1008.7